Simultaneous Nadir Overpasses (SNOs) Predictions

Prediction of SNOs between LANDSAT-8 and METOP-A Satellite Orbit:

Table of predicted SNOs for the next 14.0 days since TLE Epoch: 11/10/2018
Index Date (LANDSAT-8) Time (LANDSAT-8) Lat,Lon (LANDSAT-8) SZA (LANDSAT-8 ) Date (METOP-A) Time (METOP-A) Lat,Lon (METOP-A) SZA (METOP-A ) Distance(km) Time Diff (sec)
1 11/12/2018 00:49:24 -81.42, 32.74 78.14 11/12/2018 00:48:45 -81.41, 32.56 78.18 3.06 39
2 11/12/2018 01:38:50 81.42,-159.53 101.89 11/12/2018 01:39:24 81.42,-159.34 101.93 3.27 34
3 11/14/2018 20:23:40 -81.41, 98.99 77.43 11/14/2018 20:23:01 -81.41, 98.83 77.47 2.85 39
4 11/14/2018 21:13:06 81.41, -93.31 102.59 11/14/2018 21:13:40 81.42, -93.11 102.63 3.36 34
5 11/17/2018 15:57:55 -81.42, 165.61 76.72 11/17/2018 15:57:16 -81.41, 165.47 76.76 2.35 39
6 11/17/2018 16:47:21 81.42, -26.71 103.30 11/17/2018 16:47:56 81.42, -26.91 103.29 3.28 35
7 11/20/2018 11:32:09 -81.42,-127.80 76.07 11/20/2018 11:31:30 -81.42,-127.91 76.10 1.94 39
8 11/20/2018 12:21:35 81.42, 39.86 103.95 11/20/2018 12:22:10 81.42, 39.67 103.94 3.16 35
9 11/23/2018 07:06:25 -81.41, -61.63 75.52 11/23/2018 07:05:46 -81.41, -61.71 75.54 1.39 39




NCC Satellite Simultaneous Nadir Overpasses (SNOs) Prediction Service
